Torna al catalogo

DELTA 1 DEB

AttivoLEO
NORAD 10629·DEBRIS·🇺🇸 United States

Lanciato Jul 14, 1977 da Cape Canaveral Space Force Station

Loading…

Prossimi Passaggi (prossime 24 ore)

TLE

AggiornatoSource: Space-Track

Epoca: Sep 14, 2026, 11:10 UTC

1 10629U 77065EY  26257.46564070  .00000048  00000-0  39518-5 0  9990
2 10629  29.8301  29.3910 0813633   2.6225 357.8273 12.80264651289490

Traccia DELTA 1 DEB in tempo reale con AllMySat

Download on the App Store